7 * 24
多渠道服务支持
STARLINK-36568(NORAD编号68017)是SpaceX星链星座中的一颗近地轨道通信卫星,隶属于全球规模最大的卫星互联网组网项目。星链星座通过部署大量低轨卫星,为全球提供高速低延迟宽带互联网服务,可支持流媒体、视频通话、远程办公等应用,尤其能覆盖地面网络无法抵达的偏远区域。 作为星链批量生产发射的卫星之一,它采用紧凑平板设计,适配猎鹰9号火箭密集发射构型,依托SpaceX的可重复发射技术控制组网成本,助力星链实现持续的星座扩容与技术迭代,推动全球太空通信基础设施建设。
美国
(US)
| 数据来源 | 国际轨道数据 |
| 星历时间: | 2026-05-25T11:00:36+0800 5小时前 查看轨道信息 |
| 半长轴: | 6843.643km |
| 偏心率: | 0.0001836 |
| 轨道倾角: | 97.285° |
| 近地点辐角 | 97.677° |
| 升交点赤经 | 94.092° |
| 平近点角 | 262.468° |
| 近地点: | 464.249km |
| 远地点: | 466.763km |
| 周期: | 93.905分钟 |
| 每日圈数: | 15.334576 |